Location: Newark
(47.5000°N, 4.6167°E)
Time: 00:04:30
(UTC+00:00)

ISS - Pass Details

Date: 16 May 2021
Orbit: 417 x 422 km, 51.6° (Epoch: 14 June)

Event Time Altitude Azimuth Distance (km) Brightness Sun altitude
Rises 00:50:48 0° 292° (WNW) 2,372 0.1 -21.4°
Reaches altitude 10° 00:52:56 10° 297° (WNW) 1,507 -0.9 -21.3°
Maximum altitude 00:56:16 57° 17° (NNE) 502 -3.1 -21.1°
Drops below altitude 10° 00:59:37 10° 97° (E) 1,506 -0.8 -20.9°
Sets 01:01:44 0° 102° (ESE) 2,369 0.2 -20.8°
